| time (UTC) | temp C | wind direction | speed KPH | gust KPH | rain 1hr cm | rain 24hr cm | rain mn cm | humidity % | barometer mb |
| 20260505053934 | 7 | 163 | 0.0 | 11.3 | 0.00 | 0.00 | 0.00 | 59 | 1013.3 |
| 20260505052933 | 7 | 292 | 3.2 | 4.8 | 0.00 | 0.00 | 0.00 | 58 | 1012.8 |
| 20260505051956 | 8 | 297 | 4.8 | 11.3 | 0.00 | 0.00 | 0.00 | 58 | 1012.8 |
| 20260505040922 | 8 | 335 | 1.6 | 11.3 | 0.00 | 0.00 | 0.00 | 55 | 1012.8 |
| 20260505035920 | 9 | 271 | 8.0 | 12.9 | 0.00 | 0.00 | 0.00 | 56 | 1012.8 |
| 20260505034921 | 8 | 175 | 3.2 | 14.5 | 0.00 | 0.00 | 0.00 | 55 | 1012.8 |
| 20260505033917 | 9 | 276 | 6.4 | 9.7 | 0.00 | 0.00 | 0.00 | 54 | 1012.5 |
| 20260505032916 | 10 | 268 | 4.8 | 24.1 | 0.00 | 0.00 | 0.00 | 51 | 1012.2 |
| 20260505031915 | 11 | 74 | 14.5 | 25.7 | 0.00 | 0.00 | 0.00 | 51 | 1011.7 |
| 20260505030913 | 11 | 102 | 14.5 | 30.6 | 0.00 | 0.00 | 0.00 | 50 | 1011.7 |
| 20260505025911 | 11 | 61 | 16.1 | 24.1 | 0.00 | 0.00 | 0.00 | 50 | 1011.4 |
| 20260505024912 | 11 | 72 | 12.9 | 24.1 | 0.00 | 0.00 | 0.00 | 50 | 1011.4 |
| 20260505023908 | 12 | 35 | 8.0 | 12.9 | 0.00 | 0.00 | 0.00 | 50 | 1011.4 |
| 20260505023340 | 12 | 36 | 6.4 | 9.7 | 0.00 | 0.00 | 0.00 | 48 | 1010.9 |
| 20260505021906 | 13 | 42 | 8.0 | 20.9 | 0.00 | 0.00 | 0.00 | 47 | 1010.9 |
| 20260505020903 | 14 | 59 | 16.1 | 25.7 | 0.00 | 0.00 | 0.00 | 45 | 1010.6 |
| 20260505015902 | 15 | 67 | 16.1 | 22.5 | 0.00 | 0.00 | 0.00 | 43 | 1010.6 |
| 20260505014902 | 18 | 51 | 17.7 | 27.4 | 0.00 | 0.00 | 0.00 | 39 | 1010.6 |
| 20260505013900 | 18 | 338 | 9.7 | 17.7 | 0.00 | 0.00 | 0.00 | 38 | 1010.2 |
| 20260505012858 | 18 | 48 | 16.1 | 25.7 | 0.00 | 0.00 | 0.00 | 40 | 1010.2 |
| 20260505012336 | 16 | 46 | 16.1 | 29.0 | 0.00 | 0.00 | 0.00 | 42 | 1010.6 |
| 20260505010855 | 17 | 67 | 24.1 | 33.8 | 0.00 | 0.00 | 0.00 | 41 | 1010.2 |
| 20260505005853 | 18 | 69 | 14.5 | 38.6 | 0.00 | 0.00 | 0.00 | 39 | 1010.6 |
| 20260505004853 | 20 | 31 | 16.1 | 33.8 | 0.00 | 0.00 | 0.00 | 38 | 1010.2 |
| 20260505003851 | 21 | 16 | 19.3 | 25.7 | 0.00 | 0.00 | 0.00 | 37 | 1010.2 |
| 20260505003019 | 20 | 12 | 17.7 | 29.0 | 0.00 | 0.00 | 0.00 | 38 | 1010.6 |
| 20260505002520 | 19 | 12 | 16.1 | 24.1 | 0.00 | 0.00 | 0.00 | 38 | 1010.2 |
| 20260505001015 | 18 | 312 | 17.7 | 33.8 | 0.00 | 0.00 | 0.00 | 41 | 1009.8 |
| 20260505000012 | 18 | 340 | 17.7 | 24.1 | 0.00 | 0.00 | 0.00 | 42 | 1010.2 |
| 20260504235009 | 18 | 13 | 17.7 | 30.6 | 0.00 | 0.00 | 0.00 | 40 | 1009.8 |
| 20260504234005 | 19 | 4 | 19.3 | 25.7 | 0.00 | 0.00 | 0.00 | 40 | 1009.8 |
| 20260504233001 | 19 | 341 | 19.3 | 30.6 | 0.00 | 0.00 | 0.00 | 41 | 1009.8 |
| 20260504232001 | 19 | 335 | 20.9 | 30.6 | 0.00 | 0.00 | 0.00 | 41 | 1009.8 |
| 20260504231003 | 19 | 10 | 22.5 | 37.0 | 0.00 | 0.00 | 0.00 | 40 | 1009.5 |
| 20260504225954 | 19 | 342 | 24.1 | 30.6 | 0.00 | 0.00 | 0.00 | 40 | 1009.5 |
| 20260504225452 | 20 | 2 | 14.5 | 33.8 | 0.00 | 0.00 | 0.00 | 41 | 1009.8 |
| 20260504223945 | 21 | 351 | 17.7 | 27.4 | 0.00 | 0.00 | 0.00 | 38 | 1009.8 |
| 20260504222943 | 21 | 336 | 20.9 | 27.4 | 0.00 | 0.00 | 0.00 | 39 | 1009.8 |
| 20260504221941 | 21 | 347 | 19.3 | 29.0 | 0.00 | 0.00 | 0.00 | 37 | 1009.8 |
| 20260504220937 | 21 | 348 | 17.7 | 29.0 | 0.00 | 0.00 | 0.00 | 39 | 1009.8 |
| 20260504220436 | 21 | 322 | 9.7 | 25.7 | 0.00 | 0.00 | 0.00 | 40 | 1009.8 |
| 20260504214933 | 21 | 317 | 16.1 | 30.6 | 0.00 | 0.00 | 0.00 | 38 | 1009.8 |
| 20260504213927 | 21 | 357 | 20.9 | 29.0 | 0.00 | 0.00 | 0.00 | 40 | 1010.2 |
| 20260504212924 | 21 | 343 | 20.9 | 29.0 | 0.00 | 0.00 | 0.00 | 40 | 1010.2 |
| 20260504211923 | 21 | 305 | 19.3 | 27.4 | 0.00 | 0.00 | 0.00 | 39 | 1010.2 |
| 20260504210917 | 21 | 327 | 20.9 | 25.7 | 0.00 | 0.00 | 0.00 | 39 | 1010.2 |
| 20260504210421 | 21 | 13 | 14.5 | 24.1 | 0.00 | 0.00 | 0.00 | 37 | 1010.2 |
| 20260504204914 | 21 | 335 | 14.5 | 29.0 | 0.00 | 0.00 | 0.00 | 39 | 1010.2 |
| 20260504203910 | 21 | 345 | 14.5 | 24.1 | 0.00 | 0.00 | 0.00 | 40 | 1010.2 |
| 20260504202905 | 21 | 3 | 16.1 | 25.7 | 0.00 | 0.00 | 0.00 | 39 | 1010.6 |
| 20260504201907 | 21 | 316 | 16.1 | 24.1 | 0.00 | 0.00 | 0.00 | 40 | 1010.2 |
| 20260504200859 | 20 | 352 | 14.5 | 27.4 | 0.00 | 0.00 | 0.00 | 41 | 1010.6 |
| 20260504195858 | 20 | 13 | 12.9 | 24.1 | 0.00 | 0.00 | 0.00 | 42 | 1010.9 |
| 20260504194855 | 20 | 310 | 17.7 | 33.8 | 0.00 | 0.00 | 0.00 | 42 | 1010.9 |
| 20260504193851 | 20 | 342 | 19.3 | 25.7 | 0.00 | 0.00 | 0.00 | 40 | 1010.9 |
| 20260504192847 | 20 | 337 | 6.4 | 22.5 | 0.00 | 0.00 | 0.00 | 41 | 1010.9 |
| 20260504191847 | 20 | 340 | 8.0 | 25.7 | 0.00 | 0.00 | 0.00 | 40 | 1010.9 |
| 20260504190842 | 19 | 319 | 16.1 | 29.0 | 0.00 | 0.00 | 0.00 | 40 | 1011.4 |
| 20260504190339 | 19 | 12 | 14.5 | 27.4 | 0.00 | 0.00 | 0.00 | 43 | 1011.4 |
| 20260504184837 | 18 | 354 | 11.3 | 27.4 | 0.00 | 0.00 | 0.00 | 43 | 1010.9 |
| 20260504183838 | 18 | 5 | 16.1 | 25.7 | 0.00 | 0.00 | 0.00 | 45 | 1011.7 |
| 20260504183834 | 18 | 345 | 16.1 | 27.4 | 0.00 | 0.00 | 0.00 | 42 | 1011.4 |
| 20260504181828 | 18 | 340 | 16.1 | 29.0 | 0.00 | 0.00 | 0.00 | 44 | 1011.4 |
| 20260504180825 | 17 | 305 | 19.3 | 25.7 | 0.00 | 0.00 | 0.00 | 44 | 1011.7 |
| 20260504175821 | 17 | 295 | 19.3 | 27.4 | 0.00 | 0.00 | 0.00 | 44 | 1011.7 |
| 20260504174820 | 17 | 314 | 17.7 | 24.1 | 0.00 | 0.00 | 0.00 | 46 | 1011.7 |
| 20260504173815 | 17 | 345 | 14.5 | 30.6 | 0.00 | 0.00 | 0.00 | 47 | 1011.7 |
| 20260504172813 | 17 | 297 | 20.9 | 24.1 | 0.00 | 0.00 | 0.00 | 46 | 1012.2 |
| 20260504171811 | 17 | 311 | 16.1 | 20.9 | 0.00 | 0.00 | 0.00 | 47 | 1012.2 |
| 20260504170805 | 17 | 330 | 8.0 | 12.9 | 0.00 | 0.00 | 0.00 | 47 | 1012.2 |
| 20260504160245 | 16 | 341 | 3.2 | 11.3 | 0.00 | 0.00 | 0.00 | 54 | 1012.5 |
| 20260504150729 | 12 | 209 | 6.4 | 9.7 | 0.00 | 0.00 | 0.00 | 60 | 1012.2 |
| 20260504150229 | 12 | 203 | 1.6 | 6.4 | 0.00 | 0.00 | 0.00 | 61 | 1012.5 |
| 20260504140719 | 11 | 144 | 0.0 | 9.7 | 0.00 | 0.00 | 0.00 | 66 | 1012.5 |
| 20260504130710 | 7 | 151 | 1.6 | 9.7 | 0.00 | 0.00 | 0.00 | 72 | 1011.4 |
| 20260504120138 | 5 | 3 | 9.7 | 11.3 | 0.00 | 0.00 | 0.00 | 71 | 1010.9 |
| 20260504110653 | 6 | 34 | 19.3 | 25.7 | 0.00 | 0.00 | 0.00 | 75 | 1010.6 |
| 20260504110133 | 6 | 36 | 6.4 | 6.4 | 0.00 | 0.00 | 0.00 | 71 | 1010.6 |
| 20260504081630 | 8 | 94 | 8.0 | 16.1 | 0.00 | 0.00 | 0.00 | 69 | 1010.9 |
| 20260504080627 | 8 | 89 | 9.7 | 17.7 | 0.00 | 0.00 | 0.00 | 67 | 1010.9 |
| 20260504080114 | 8 | 101 | 14.5 | 17.7 | 0.00 | 0.00 | 0.00 | 67 | 1010.6 |